Time,TemperatureF,DewpointF,PressureIn,WindDirection,WindDirectionDegrees,WindSpeedMPH,WindSpeedGustMPH,Humidity,HourlyPrecipIn,Conditions,Clouds,dailyrainin,SoftwareType,DateUTC
2013-04-11 00:03:00,46.0,45.0,-100.00,North,5,0.0,2.0,97,0.00,,,-99.99,,2013-04-11 04:03:00,
2013-04-11 00:13:00,46.0,46.0,-100.00,North,5,3.0,4.0,97,0.00,,,-99.99,,2013-04-11 04:13:00,
2013-04-11 00:22:00,46.0,45.0,-100.00,North,355,3.0,7.0,97,0.00,,,-99.99,,2013-04-11 04:22:00,
2013-04-11 00:33:00,46.0,45.0,-100.00,WNW,295,1.0,6.0,97,0.00,,,-99.99,,2013-04-11 04:33:00,
2013-04-11 00:42:00,46.0,45.0,-100.00,West,280,4.0,6.0,97,0.00,,,-99.99,,2013-04-11 04:42:00,
2013-04-11 00:52:00,46.0,45.0,-100.00,WNW,285,2.0,7.0,97,2.24,,,-99.99,,2013-04-11 04:52:00,
2013-04-11 01:02:00,45.0,44.0,-100.00,West,280,0.0,5.0,97,4.53,,,-99.99,,2013-04-11 05:02:00,
2013-04-11 01:13:00,45.0,45.0,-100.00,West,280,0.0,2.0,97,5.67,,,-99.99,,2013-04-11 05:13:00,
2013-04-11 01:22:00,45.0,45.0,-100.00,West,275,0.0,3.0,97,4.53,,,-99.99,,2013-04-11 05:22:00,
2013-04-11 01:32:00,46.0,45.0,-100.00,West,275,0.0,2.0,97,0.55,,,-99.99,,2013-04-11 05:32:00,
2013-04-11 01:42:00,46.0,45.0,-100.00,West,275,0.0,2.0,97,1.69,,,-99.99,,2013-04-11 05:42:00,
2013-04-11 01:52:00,46.0,45.0,-100.00,West,275,0.0,1.0,97,4.53,,,-99.99,,2013-04-11 05:52:00,
2013-04-11 02:02:00,46.0,45.0,-100.00,West,275,0.0,2.0,97,0.00,,,-99.99,,2013-04-11 06:02:00,
2013-04-11 02:12:00,46.0,46.0,-100.00,West,275,1.0,2.0,97,0.55,,,-99.99,,2013-04-11 06:12:00,
2013-04-11 02:22:00,47.0,46.0,-100.00,NE,35,0.0,4.0,97,0.00,,,-99.99,,2013-04-11 06:22:00,
2013-04-11 02:32:00,47.0,46.0,-100.00,NE,45,3.0,6.0,97,0.55,,,-99.99,,2013-04-11 06:32:00,
2013-04-11 02:42:00,47.0,46.0,-100.00,NE,45,0.0,4.0,97,0.00,,,-99.99,,2013-04-11 06:42:00,
2013-04-11 02:52:00,47.0,46.0,-100.00,NE,50,0.0,3.0,97,0.00,,,-99.99,,2013-04-11 06:52:00,
2013-04-11 03:02:00,47.0,46.0,-100.00,NE,45,2.0,4.0,97,0.00,,,-99.99,,2013-04-11 07:02:00,
2013-04-11 03:12:00,47.0,46.0,-100.00,NE,55,1.0,6.0,97,0.00,,,-99.99,,2013-04-11 07:12:00,
2013-04-11 03:22:00,46.0,46.0,-100.00,East,90,1.0,4.0,97,0.55,,,-99.99,,2013-04-11 07:22:00,
2013-04-11 03:32:00,46.0,46.0,-100.00,NE,55,1.0,6.0,97,0.00,,,-99.99,,2013-04-11 07:32:00,
2013-04-11 03:42:00,46.0,46.0,-100.00,NE,50,0.0,1.0,97,0.00,,,-99.99,,2013-04-11 07:42:00,
2013-04-11 03:52:00,46.0,46.0,-100.00,NE,50,1.0,4.0,97,0.00,,,-99.99,,2013-04-11 07:52:00,
2013-04-11 04:03:00,46.0,46.0,-100.00,NE,55,0.0,2.0,97,0.00,,,-99.99,,2013-04-11 08:03:00,
2013-04-11 04:12:00,46.0,46.0,-100.00,NE,50,2.0,4.0,97,0.00,,,-99.99,,2013-04-11 08:12:00,
2013-04-11 04:22:00,46.0,46.0,-100.00,NE,50,1.0,3.0,97,0.00,,,-99.99,,2013-04-11 08:22:00,
2013-04-11 04:32:00,47.0,46.0,-100.00,NE,40,3.0,4.0,97,0.00,,,-99.99,,2013-04-11 08:32:00,
2013-04-11 04:42:00,46.0,46.0,-100.00,NNE,30,3.0,7.0,97,0.00,,,-99.99,,2013-04-11 08:42:00,
2013-04-11 04:52:00,46.0,46.0,-100.00,NNE,20,4.0,6.0,97,0.00,,,-99.99,,2013-04-11 08:52:00,
2013-04-11 05:02:00,46.0,46.0,-100.00,NNE,25,3.0,7.0,97,0.00,,,-99.99,,2013-04-11 09:02:00,
2013-04-11 05:12:00,46.0,46.0,-100.00,NNE,20,1.0,5.0,97,0.00,,,-99.99,,2013-04-11 09:12:00,
2013-04-11 05:22:00,46.0,46.0,-100.00,NNE,20,3.0,6.0,97,0.00,,,-99.99,,2013-04-11 09:22:00,
2013-04-11 05:33:00,46.0,45.0,-100.00,NE,50,4.0,9.0,97,0.00,,,-99.99,,2013-04-11 09:33:00,
2013-04-11 05:43:00,46.0,45.0,-100.00,NE,50,4.0,9.0,97,0.00,,,-99.99,,2013-04-11 09:43:00,
2013-04-11 05:52:00,46.0,45.0,-100.00,SE,130,1.0,6.0,97,0.00,,,-99.99,,2013-04-11 09:52:00,
2013-04-11 06:02:00,46.0,45.0,-100.00,NW,310,0.0,4.0,97,0.00,,,-99.99,,2013-04-11 10:02:00,
2013-04-11 06:12:00,46.0,46.0,-100.00,NE,50,1.0,4.0,97,0.00,,,-99.99,,2013-04-11 10:12:00,
2013-04-11 06:23:00,46.0,46.0,-100.00,East,85,1.0,4.0,97,0.00,,,-99.99,,2013-04-11 10:23:00,
2013-04-11 06:32:00,46.0,45.0,-100.00,East,90,1.0,3.0,97,0.00,,,-99.99,,2013-04-11 10:32:00,
2013-04-11 06:42:00,46.0,45.0,-100.00,East,90,1.0,3.0,97,0.00,,,-99.99,,2013-04-11 10:42:00,
2013-04-11 06:52:00,46.0,46.0,-100.00,NNE,30,1.0,5.0,97,0.00,,,-99.99,,2013-04-11 10:52:00,
2013-04-11 07:03:00,46.0,46.0,-100.00,NNE,30,1.0,5.0,97,0.00,,,-99.99,,2013-04-11 11:03:00,
2013-04-11 07:12:00,46.0,46.0,-100.00,East,95,0.0,4.0,97,0.00,,,-99.99,,2013-04-11 11:12:00,
2013-04-11 07:23:00,46.0,46.0,-100.00,ENE,65,2.0,4.0,97,0.00,,,-99.99,,2013-04-11 11:23:00,
2013-04-11 07:32:00,46.0,45.0,-100.00,ESE,110,2.0,6.0,97,0.00,,,-99.99,,2013-04-11 11:32:00,
2013-04-11 07:42:00,46.0,45.0,-100.00,ESE,115,2.0,4.0,97,0.00,,,-99.99,,2013-04-11 11:42:00,
2013-04-11 07:53:00,46.0,45.0,-100.00,ESE,115,1.0,6.0,97,0.00,,,-99.99,,2013-04-11 11:53:00,
2013-04-11 08:02:00,46.0,46.0,-100.00,NW,310,6.0,16.0,97,0.00,,,-99.99,,2013-04-11 12:02:00,
2013-04-11 08:12:00,47.0,46.0,-100.00,NW,305,6.0,14.0,97,0.00,,,-99.99,,2013-04-11 12:12:00,
2013-04-11 08:22:00,45.0,45.0,-100.00,West,270,7.0,16.0,97,0.00,,,-99.99,,2013-04-11 12:22:00,
2013-04-11 08:32:00,44.0,43.0,-100.00,WNW,300,4.0,13.0,97,0.00,,,-99.99,,2013-04-11 12:32:00,
2013-04-11 08:42:00,43.0,43.0,-100.00,NW,310,4.0,12.0,97,0.00,,,-99.99,,2013-04-11 12:42:00,
2013-04-11 08:52:00,43.0,43.0,-100.00,NNW,335,2.0,9.0,97,0.00,,,-99.99,,2013-04-11 12:52:00,
2013-04-11 09:02:00,44.0,43.0,-100.00,ESE,110,1.0,3.0,97,0.00,,,-99.99,,2013-04-11 13:02:00,
2013-04-11 09:12:00,45.0,44.0,-100.00,East,95,3.0,6.0,97,0.00,,,-99.99,,2013-04-11 13:12:00,
2013-04-11 09:23:00,45.0,44.0,-100.00,SSW,200,0.0,4.0,97,0.00,,,-99.99,,2013-04-11 13:23:00,
2013-04-11 09:32:00,45.0,44.0,-100.00,ESE,115,1.0,3.0,97,0.00,,,-99.99,,2013-04-11 13:32:00,
2013-04-11 09:43:00,45.0,45.0,-100.00,East,100,0.0,3.0,97,0.00,,,-99.99,,2013-04-11 13:43:00,
2013-04-11 09:53:00,46.0,45.0,-100.00,NW,315,0.0,1.0,97,0.00,,,-99.99,,2013-04-11 13:53:00,
2013-04-11 10:03:00,46.0,46.0,-100.00,East,90,0.0,3.0,97,0.00,,,-99.99,,2013-04-11 14:03:00,
2013-04-11 10:12:00,46.0,46.0,-100.00,SE,125,0.0,2.0,97,0.00,,,-99.99,,2013-04-11 14:12:00,
2013-04-11 10:22:00,46.0,46.0,-100.00,East,100,0.0,2.0,97,0.00,,,-99.99,,2013-04-11 14:22:00,
2013-04-11 10:32:00,46.0,46.0,-100.00,NE,50,1.0,3.0,97,0.00,,,-99.99,,2013-04-11 14:32:00,
2013-04-11 10:42:00,47.0,46.0,-100.00,WNW,285,0.0,2.0,97,0.55,,,-99.99,,2013-04-11 14:42:00,
2013-04-11 10:52:00,46.0,46.0,-100.00,SE,125,1.0,3.0,97,0.00,,,-99.99,,2013-04-11 14:52:00,
2013-04-11 11:02:00,47.0,46.0,-100.00,East,80,2.0,5.0,97,0.00,,,-99.99,,2013-04-11 15:02:00,
2013-04-11 11:12:00,47.0,46.0,-100.00,East,80,2.0,5.0,97,0.00,,,-99.99,,2013-04-11 15:12:00,
2013-04-11 11:22:00,47.0,47.0,-100.00,East,95,2.0,10.0,97,0.00,,,-99.99,,2013-04-11 15:22:00,
2013-04-11 11:32:00,47.0,47.0,-100.00,SE,125,2.0,6.0,97,0.00,,,-99.99,,2013-04-11 15:32:00,
2013-04-11 11:43:00,48.0,47.0,-100.00,SE,130,3.0,9.0,97,0.00,,,-99.99,,2013-04-11 15:43:00,
2013-04-11 11:53:00,48.0,47.0,-100.00,SSE,160,4.0,11.0,97,0.00,,,-99.99,,2013-04-11 15:53:00,
2013-04-11 12:02:00,48.0,48.0,-100.00,SE,140,3.0,11.0,97,0.00,,,-99.99,,2013-04-11 16:02:00,
2013-04-11 12:13:00,49.0,48.0,-100.00,ESE,115,4.0,12.0,97,0.00,,,-99.99,,2013-04-11 16:13:00,
2013-04-11 12:23:00,49.0,49.0,-100.00,NNE,15,3.0,11.0,97,0.00,,,-99.99,,2013-04-11 16:23:00,
2013-04-11 12:32:00,50.0,49.0,-100.00,West,260,1.0,5.0,97,0.00,,,-99.99,,2013-04-11 16:32:00,
2013-04-11 12:42:00,50.0,49.0,-100.00,NW,315,2.0,9.0,97,0.00,,,-99.99,,2013-04-11 16:42:00,
2013-04-11 12:52:00,50.0,50.0,-100.00,NNW,335,3.0,7.0,97,0.00,,,-99.99,,2013-04-11 16:52:00,
2013-04-11 13:02:00,48.0,47.0,-100.00,North,10,6.0,13.0,97,0.00,,,-99.99,,2013-04-11 17:02:00,
2013-04-11 13:13:00,47.0,47.0,-100.00,NNE,20,2.0,12.0,97,0.00,,,-99.99,,2013-04-11 17:13:00,
2013-04-11 13:23:00,48.0,48.0,-100.00,NW,325,4.0,7.0,97,0.00,,,-99.99,,2013-04-11 17:23:00,
2013-04-11 13:33:00,49.0,48.0,-100.00,North,350,4.0,7.0,97,0.00,,,-99.99,,2013-04-11 17:33:00,
2013-04-11 13:43:00,48.0,48.0,-100.00,North,0,4.0,7.0,97,0.00,,,-99.99,,2013-04-11 17:43:00,
2013-04-11 13:52:00,49.0,48.0,-100.00,North,10,2.0,10.0,97,0.00,,,-99.99,,2013-04-11 17:52:00,
2013-04-11 14:03:00,49.0,49.0,-100.00,NE,45,2.0,9.0,97,0.00,,,-99.99,,2013-04-11 18:03:00,
2013-04-11 14:13:00,49.0,49.0,-100.00,NE,45,2.0,9.0,97,0.00,,,-99.99,,2013-04-11 18:13:00,
2013-04-11 14:23:00,49.0,49.0,-100.00,NE,45,2.0,9.0,97,0.00,,,-99.99,,2013-04-11 18:23:00,
2013-04-11 14:33:00,50.0,49.0,-100.00,West,280,1.0,4.0,97,0.00,,,-99.99,,2013-04-11 18:33:00,
2013-04-11 14:42:00,50.0,49.0,-100.00,NNE,20,1.0,6.0,97,0.00,,,-99.99,,2013-04-11 18:42:00,
2013-04-11 14:53:00,49.0,49.0,-100.00,North,355,2.0,5.0,97,0.00,,,-99.99,,2013-04-11 18:53:00,
2013-04-11 15:04:00,49.0,48.0,-100.00,WNW,300,2.0,6.0,97,0.00,,,-99.99,,2013-04-11 19:04:00,
2013-04-11 15:14:00,49.0,48.0,-100.00,NNW,340,2.0,5.0,97,0.00,,,-99.99,,2013-04-11 19:14:00,
2013-04-11 15:22:00,49.0,49.0,-100.00,North,10,2.0,6.0,97,0.00,,,-99.99,,2013-04-11 19:22:00,
2013-04-11 15:33:00,50.0,50.0,-100.00,NNW,345,1.0,6.0,97,0.00,,,-99.99,,2013-04-11 19:33:00,
2013-04-11 15:43:00,50.0,50.0,-100.00,North,10,2.0,4.0,97,0.00,,,-99.99,,2013-04-11 19:43:00,
2013-04-11 15:52:00,51.0,50.0,-100.00,NNE,30,1.0,5.0,97,0.00,,,-99.99,,2013-04-11 19:52:00,
2013-04-11 16:03:00,50.0,50.0,-100.00,North,0,4.0,7.0,97,0.00,,,-99.99,,2013-04-11 20:03:00,
2013-04-11 16:13:00,50.0,50.0,-100.00,North,0,4.0,7.0,97,0.00,,,-99.99,,2013-04-11 20:13:00,
2013-04-11 16:22:00,52.0,51.0,-100.00,NNE,30,2.0,4.0,97,0.00,,,-99.99,,2013-04-11 20:22:00,
2013-04-11 16:33:00,51.0,50.0,-100.00,East,90,1.0,6.0,97,0.00,,,-99.99,,2013-04-11 20:33:00,
2013-04-11 16:42:00,51.0,51.0,-100.00,NNE,30,3.0,6.0,97,0.00,,,-99.99,,2013-04-11 20:42:00,
2013-04-11 16:53:00,52.0,51.0,-100.00,North,0,0.0,3.0,97,0.00,,,-99.99,,2013-04-11 20:53:00,
2013-04-11 17:03:00,53.0,52.0,-100.00,ESE,110,0.0,3.0,97,0.00,,,-99.99,,2013-04-11 21:03:00,
2013-04-11 17:12:00,53.0,52.0,-100.00,NNW,330,0.0,4.0,96,0.00,,,-99.99,,2013-04-11 21:12:00,
2013-04-11 17:22:00,53.0,52.0,-100.00,ENE,60,0.0,2.0,96,0.00,,,-99.99,,2013-04-11 21:22:00,
2013-04-11 17:33:00,52.0,51.0,-100.00,ESE,105,0.0,7.0,96,0.00,,,-99.99,,2013-04-11 21:33:00,
2013-04-11 17:42:00,52.0,51.0,-100.00,ESE,105,0.0,7.0,96,0.00,,,-99.99,,2013-04-11 21:42:00,
2013-04-11 17:53:00,52.0,51.0,-100.00,NE,45,0.0,2.0,95,0.00,,,-99.99,,2013-04-11 21:53:00,
2013-04-11 18:03:00,52.0,51.0,-100.00,SSE,150,0.0,3.0,95,0.00,,,-99.99,,2013-04-11 22:03:00,
2013-04-11 18:13:00,52.0,51.0,-100.00,East,85,0.0,5.0,95,0.00,,,-99.99,,2013-04-11 22:13:00,
2013-04-11 18:23:00,53.0,51.0,-100.00,NE,45,0.0,0.0,95,0.00,,,-99.99,,2013-04-11 22:23:00,
2013-04-11 18:33:00,53.0,51.0,-100.00,ENE,75,0.0,4.0,95,0.00,,,-99.99,,2013-04-11 22:33:00,
2013-04-11 18:44:00,52.0,51.0,-100.00,ENE,70,0.0,3.0,94,0.55,,,-99.99,,2013-04-11 22:44:00,
2013-04-11 18:52:00,53.0,51.0,-100.00,NNE,30,1.0,4.0,94,0.55,,,-99.99,,2013-04-11 22:52:00,
2013-04-11 19:03:00,53.0,51.0,-100.00,NNE,30,0.0,0.0,94,0.00,,,-99.99,,2013-04-11 23:03:00,
2013-04-11 19:13:00,53.0,51.0,-100.00,NE,50,0.0,0.0,94,0.00,,,-99.99,,2013-04-11 23:13:00,
2013-04-11 19:23:00,52.0,51.0,-100.00,ENE,60,0.0,1.0,94,0.00,,,-99.99,,2013-04-11 23:23:00,
2013-04-11 19:33:00,52.0,51.0,-100.00,East,95,0.0,0.0,94,0.00,,,-99.99,,2013-04-11 23:33:00,
2013-04-11 19:42:00,52.0,51.0,-100.00,North,0,0.0,3.0,94,0.00,,,-99.99,,2013-04-11 23:42:00,
2013-04-11 19:53:00,52.0,50.0,-100.00,ENE,60,0.0,4.0,94,0.00,,,-99.99,,2013-04-11 23:53:00,
2013-04-11 20:02:00,51.0,50.0,-100.00,ESE,105,0.0,6.0,94,0.00,,,-99.99,,2013-04-12 00:02:00,
2013-04-11 20:12:00,51.0,50.0,-100.00,East,80,0.0,2.0,94,0.00,,,-99.99,,2013-04-12 00:12:00,
2013-04-11 20:22:00,51.0,49.0,-100.00,South,170,1.0,5.0,94,0.00,,,-99.99,,2013-04-12 00:22:00,
2013-04-11 20:32:00,51.0,49.0,-100.00,ENE,75,0.0,2.0,94,0.00,,,-99.99,,2013-04-12 00:32:00,
2013-04-11 20:42:00,51.0,49.0,-100.00,East,90,1.0,4.0,94,0.55,,,-99.99,,2013-04-12 00:42:00,
2013-04-11 20:52:00,50.0,49.0,-100.00,South,180,0.0,7.0,94,0.55,,,-99.99,,2013-04-12 00:52:00,
2013-04-11 21:02:00,50.0,49.0,-100.00,NNW,345,0.0,6.0,94,0.55,,,-99.99,,2013-04-12 01:02:00,
2013-04-11 21:12:00,50.0,49.0,-100.00,ENE,75,2.0,6.0,94,0.00,,,-99.99,,2013-04-12 01:12:00,
2013-04-11 21:22:00,50.0,49.0,-100.00,SE,135,1.0,5.0,95,0.00,,,-99.99,,2013-04-12 01:22:00,
2013-04-11 21:32:00,50.0,49.0,-100.00,ENE,65,2.0,11.0,95,0.00,,,-99.99,,2013-04-12 01:32:00,
2013-04-11 21:42:00,50.0,49.0,-100.00,NNE,30,1.0,4.0,95,0.00,,,-99.99,,2013-04-12 01:42:00,
2013-04-11 21:52:00,50.0,49.0,-100.00,ESE,120,1.0,4.0,95,0.00,,,-99.99,,2013-04-12 01:52:00,
2013-04-11 22:03:00,50.0,49.0,-100.00,East,90,1.0,7.0,95,0.00,,,-99.99,,2013-04-12 02:03:00,
2013-04-11 22:12:00,50.0,49.0,-100.00,East,85,2.0,7.0,95,0.00,,,-99.99,,2013-04-12 02:12:00,
2013-04-11 22:22:00,50.0,49.0,-100.00,East,100,1.0,6.0,95,0.00,,,-99.99,,2013-04-12 02:22:00,
2013-04-11 22:32:00,50.0,49.0,-100.00,ESE,105,2.0,8.0,95,0.00,,,-99.99,,2013-04-12 02:32:00,
2013-04-11 22:42:00,50.0,49.0,-100.00,East,95,1.0,7.0,95,0.00,,,-99.99,,2013-04-12 02:42:00,
2013-04-11 22:52:00,51.0,49.0,-100.00,East,100,1.0,6.0,95,0.00,,,-99.99,,2013-04-12 02:52:00,
2013-04-11 23:02:00,51.0,49.0,-100.00,ENE,60,1.0,7.0,95,0.00,,,-99.99,,2013-04-12 03:02:00,
2013-04-11 23:12:00,51.0,49.0,-100.00,NE,35,1.0,6.0,95,0.00,,,-99.99,,2013-04-12 03:12:00,
2013-04-11 23:22:00,51.0,49.0,-100.00,NE,35,1.0,6.0,95,0.00,,,-99.99,,2013-04-12 03:22:00,
2013-04-11 23:33:00,51.0,50.0,-100.00,West,275,7.0,10.0,95,0.00,,,-99.99,,2013-04-12 03:33:00,
2013-04-11 23:43:00,51.0,50.0,-100.00,NE,50,1.0,9.0,95,0.55,,,-99.99,,2013-04-12 03:43:00,
2013-04-11 23:52:00,51.0,50.0,-100.00,NE,50,1.0,9.0,95,0.55,,,-99.99,,2013-04-12 03:52:00,